Belvidere, Illinois, United States (61008)
Lat: 42.26N, Lon: 88.84W
Wx Zone: ILZ004
Local Info
Past Weather Observations for Wednesday, September 21, 2016

NOTE: This archive is for the closest National Weather Service station to Belvidere. Information may differ from the station used for current weather conditions.

Click here for Long-term Archive

Time Weather Temperature Dewpoint Humidity Pressure Winds Precip Visibility
23:54
Overcast
68°F / 20°C 63°F / 17°C 83% 30.12 in
(1020 mb)
Calm - 10SM
22:54
Overcast
68°F / 20°C 63°F / 17°C 83% 30.12 in
(1020 mb)
E 4.6 mph
(E 7 kph)
- 10SM
21:54
Overcast
70°F / 21°C 63°F / 17°C 78% 30.09 in
(1019 mb)
SSE 6.9 mph
(SSE 11 kph)
- 10SM
20:54
Overcast
70°F / 21°C 63°F / 17°C 78% 30.09 in
(1019 mb)
SE 4.6 mph
(SE 7 kph)
- 10SM
19:54
Overcast
70°F / 21°C 63°F / 17°C 78% 30.09 in
(1019 mb)
SE 6.9 mph
(SE 11 kph)
- 10SM
18:54
Overcast
72°F / 22°C 63°F / 17°C 73% 30.09 in
(1019 mb)
E 9.2 mph
(E 15 kph)
- 10SM
17:54
Overcast
72°F / 22°C 64°F / 18°C 78% 30.12 in
(1020 mb)
S 5.8 mph
(S 9 kph)
- 10SM
16:54
Overcast
75°F / 24°C 63°F / 17°C 65% 30.09 in
(1019 mb)
Calm - 10SM
15:54
Mostly Cloudy
75°F / 24°C 64°F / 18°C 69% 30.09 in
(1019 mb)
SSE 9.2 mph
(SSE 15 kph)
- 10SM
14:54
Mostly Cloudy
75°F / 24°C 64°F / 18°C 69% 30.12 in
(1020 mb)
S 15 mph
(S 24 kph)
- 10SM
13:54
Mostly Cloudy
73°F / 23°C 66°F / 19°C 78% 30.15 in
(1021 mb)
SSE 12.7 mph
(SSE 20 kph)
- 10SM
12:54
Mostly Cloudy
66°F / 19°C 64°F / 18°C 94% 30.18 in
(1022 mb)
SE 13.8 mph
(SE 22 kph)
0.02 in
(0.51 mm)
10SM
12:38
Mostly Cloudy
Light Rain
66°F / 19°C 63°F / 17°C 88% 30.21 in
(1023 mb)
SE 13.8 mph
(SE 22 kph)
0.02 in
(0.51 mm)
10SM
12:17
Mostly Cloudy
Thunder Storms
66°F / 19°C 63°F / 17°C 88% 30.21 in
(1023 mb)
E 12.7 mph
(E 20 kph)
0.02 in
(0.51 mm)
10SM
11:54
Mostly Cloudy
Light Rain
66°F / 19°C 63°F / 17°C 88% 30.21 in
(1023 mb)
SE 6.9 mph
(SE 11 kph)
0.09 in
(2.29 mm)
10SM
11:24
Overcast
Thunder Storms
66°F / 19°C 63°F / 17°C 88% 30.24 in
(1024 mb)
E 10.4 mph
(E 17 kph)
0.07 in
(1.78 mm)
6SM
10:54
Overcast
Thunder Storms
66°F / 19°C 63°F / 17°C 88% 30.24 in
(1024 mb)
S 9.2 mph
(S 15 kph)
0.17 in
(4.32 mm)
5SM
09:54
Overcast
Thunder Storms
66°F / 19°C 63°F / 17°C 88% 30.24 in
(1024 mb)
Variable 4.6 mph
(Variable 7 kph)
0.34 in
(8.64 mm)
9SM
09:20
Overcast
Thunder Storms
68°F / 20°C 63°F / 17°C 83% 30.24 in
(1024 mb)
E 9.2 mph
(E 15 kph)
0.30 in
(7.62 mm)
9SM
09:04
Overcast
Thunder Storms
66°F / 19°C 63°F / 17°C 88% 30.24 in
(1024 mb)
E 18.4 mph
(E 30 kph)
0.27 in
(6.86 mm)
3SM
08:59
Overcast
Thunder Storms
66°F / 19°C 63°F / 17°C 88% 30.24 in
(1024 mb)
SE 12.7 mph
(SE 20 kph)
0.19 in
(4.83 mm)
1SM
08:54
Overcast
Thunder Storms
66°F / 19°C 63°F / 17°C 88% 30.27 in
(1025 mb)
Variable 6.9 mph
(Variable 11 kph)
0.08 in
(2.03 mm)
1 1/2SM
08:41
Overcast
Thunder Storms
66°F / 19°C 63°F / 17°C 88% 30.21 in
(1023 mb)
SE 13.8 mph
(SE 22 kph)
- 10SM
07:54
Overcast
66°F / 19°C 63°F / 17°C 88% 30.21 in
(1023 mb)
ESE 6.9 mph
(ESE 11 kph)
- 10SM
06:54
Mostly Cloudy
66°F / 19°C 63°F / 17°C 88% 30.18 in
(1022 mb)
E 4.6 mph
(E 7 kph)
0.01 in
(0.25 mm)
10SM
06:17
Mostly Cloudy
66°F / 19°C 63°F / 17°C 88% 30.15 in
(1021 mb)
E 11.5 mph
(E 19 kph)
0.01 in
(0.25 mm)
10SM
05:54
Overcast
Thunder Storms
66°F / 19°C 63°F / 17°C 88% 30.15 in
(1021 mb)
E 11.5 mph
(E 19 kph)
0.33 in
(8.38 mm)
3SM
05:01
Mostly Cloudy
Thunder Storms
70°F / 21°C 64°F / 18°C 83% 30.15 in
(1021 mb)
NNW 21.9 mph
(NNW 35 kph)
- 10SM
04:54
Mostly Cloudy
68°F / 20°C 63°F / 17°C 83% 30.15 in
(1021 mb)
Calm - 10SM
03:54
Mostly Cloudy
66°F / 19°C 63°F / 17°C 88% 30.12 in
(1020 mb)
SSE 3.5 mph
(SSE 6 kph)
- 10SM
02:54
Mostly Cloudy
66°F / 19°C 61°F / 16°C 83% 30.09 in
(1019 mb)
SSE 5.8 mph
(SSE 9 kph)
- 10SM
01:54
Mostly Cloudy
66°F / 19°C 61°F / 16°C 83% 30.09 in
(1019 mb)
SSE 3.5 mph
(SSE 6 kph)
- 10SM
00:54
Clear
66°F / 19°C 57°F / 14°C 73% 30.09 in
(1019 mb)
SE 6.9 mph
(SE 11 kph)
- 10SM
Time Weather Temperature Dewpoint Humidity Pressure Winds Precip Visibility


Weather for websites

WeatherForYou.com, LLC is not responsible for any damages or problems caused by this service. Current weather conditions are obtained from the closest station including government and personal stations which may have varying degrees of accuracy. Weather forecasts are derived from the NOAA NDFD. Like all things, this site belongs to Jesus Christ... He just trusts us to maintain it. If you have any questions or comments email webmaster@weatherforyou.com

Copyright © 2016, WeatherForYou.com LLC. All rights reserved.